Regional Weather Roundup
Issued by NWS

Home | Current Version | Previous Version | Graphics & Text | Print | Product List | Glossary On
Versions: 1 2 3 4 5 6 7 8 9 10 11 12 13 14 15 16 17 18 19 20 21 22 23 24 25 26 27
000
ASUS45 KBOI 241310
RWRID

IDAHO REGIONAL WEATHER ROUNDUP
NATIONAL WEATHER SERVICE BOISE ID
600 AM MST FRI FEB 24 2017

NOTE: "FAIR" INDICATES FEW OR NO CLOUDS BELOW 12000 FEET
WITH NO SIGNIFICANT WEATHER AND/OR OBSTRUCTIONS TO VISIBILITY

IDZ012-014-241400-
SOUTHWEST IDAHO


CITY           SKY/WX    TMP DP  RH WIND       PRES   REMARKS
BOISE          NOT AVBL
CALDWELL       PTCLDY    27  19  72 W14       30.08R WCI  16
MOUNTAIN HOME  PTCLDY    26  19  72 W13       30.03R WCI  15
$$

IDZ016-017-241400-
SOUTHCENTRAL IDAHO


CITY           SKY/WX    TMP DP  RH WIND       PRES   REMARKS
BURLEY         FLURRIES  25  14  63 SW23      29.95R WCI  10
JEROME           N/A    N/A N/A N/A MISG      29.96R
TWIN FALLS     CLOUDY    19  11  70 SW20G30   29.97R WCI   3
$$

IDZ019>023-241400-
SOUTHEAST IDAHO


CITY           SKY/WX    TMP DP  RH WIND       PRES   REMARKS
IDAHO FALLS    LGT SNOW  20  19  96 S21G29    29.89R FOG     WCI   4
POCATELLO      LGT SNOW  21  19  92 SW22      29.94R VSB 1   WCI   5
REXBURG        LGT SNOW  20  18  92 S14G20    29.88R FOG     WCI   7
$$

IDZ006-010-011-018-031-032-241400-
CENTRAL IDAHO MOUNTAINS


CITY           SKY/WX    TMP DP  RH WIND       PRES   REMARKS
MCCALL         MOCLDY    17   6  62 N6        29.92R WCI   9
HAILEY         LGT SNOW  21  19  93 SE5       29.84R WCI  15
STANLEY          N/A     14  10  84 N5        29.82R WCI   6
SALMON         CLOUDY    27  18  69 CALM      29.91S
CHALLIS        CLOUDY    23  14  68 N9        29.86R WCI  13
$$

IDZ002-004-006-007-026-241400-
NORTHERN IDAHO


CITY           SKY/WX    TMP DP  RH WIND       PRES   REMARKS
LEWISTON       MOCLDY    26  21  81 CALM      30.15S
LOWELL           N/A     30  27  88 CALM      30.16R
COEUR D`ALENE  PTCLDY    20  19  96 CALM      30.10R
MULLAN PASS    MOCLDY    12  10  92 W3        29.89R
$$




USA.gov is the U.S. government's official web portal to all federal, state and local government web resources and services.